• In Sweden
  • List of Countries
  • For 7 days
  • Water Temperature
  • Satellite Maps
  • Weather Map
  • Weather Widgets
  • user-avatar
    Login

    Hourly Weather Evkovo

    Today, 28 May, Monday

    Time Temperature Precipitation Wind Pressure Humidity
    00:00 +9°C° 0 mm 3 mps 757 mmHg 54%
    01:00 +8°C° 0 mm 3 mps 758 mmHg 55%
    02:00 +7°C° 0 mm 3 mps 758 mmHg 56%
    03:00 +7°C° 0 mm 3 mps 759 mmHg 57%
    04:00 +7°C° 0 mm 3 mps 759 mmHg 57%
    05:00 +8°C° 0 mm 3 mps 760 mmHg 58%
    06:00 +9°C° 0 mm 3 mps 760 mmHg 53%
    07:00 +11°C° 0 mm 3 mps 761 mmHg 49%
    08:00 +12°C° 0 mm 3 mps 761 mmHg 45%
    09:00 +13°C° 0 mm 3 mps 761 mmHg 42%
    10:00 +14°C° 0 mm 3 mps 761 mmHg 39%
    11:00 +16°C° 0 mm 3 mps 761 mmHg 36%
    12:00 +17°C° 0 mm 3 mps 761 mmHg 35%
    13:00 +18°C° 0 mm 2 mps 761 mmHg 35%
    14:00 +18°C° 0 mm 2 mps 761 mmHg 34%
    15:00 +18°C° 0 mm 2 mps 761 mmHg 36%
    16:00 +18°C° 0 mm 2 mps 760 mmHg 37%
    17:00 +19°C° 0 mm 1 mps 760 mmHg 39%
    18:00 +16°C° 0 mm 1 mps 760 mmHg 45%
    19:00 +14°C° 0 mm 1 mps 760 mmHg 52%
    20:00 +12°C° 0 mm 1 mps 760 mmHg 58%
    21:00 +12°C° 0 mm 1 mps 760 mmHg 59%
    22:00 +10°C° 0 mm 2 mps 760 mmHg 61%
    23:00 +9°C° 0 mm 2 mps 760 mmHg 62%

    Tomorrow, 29 May, Tuesday

    Time Temperature Precipitation Wind Pressure Humidity
    00:00 +9°C° 0 mm 2 mps 760 mmHg 64%
    01:00 +8°C° 0 mm 2 mps 761 mmHg 66%
    02:00 +8°C° 0 mm 2 mps 761 mmHg 67%
    03:00 +9°C° 0 mm 2 mps 760 mmHg 67%
    04:00 +9°C° 0 mm 3 mps 760 mmHg 66%
    05:00 +10°C° 0 mm 3 mps 760 mmHg 65%
    06:00 +12°C° 0 mm 3 mps 760 mmHg 60%
    07:00 +14°C° 0 mm 3 mps 759 mmHg 55%
    08:00 +17°C° 0 mm 4 mps 759 mmHg 49%
    09:00 +19°C° 0 mm 4 mps 758 mmHg 46%
    10:00 +20°C° 0 mm 4 mps 758 mmHg 43%
    11:00 +21°C° 0 mm 4 mps 757 mmHg 39%
    12:00 +22°C° 0 mm 4 mps 757 mmHg 39%
    13:00 +22°C° 0 mm 4 mps 756 mmHg 39%
    14:00 +23°C° 0 mm 4 mps 755 mmHg 38%
    15:00 +23°C° 0 mm 4 mps 754 mmHg 41%
    16:00 +24°C° 0 mm 3 mps 753 mmHg 44%
    17:00 +22°C° 0 mm 3 mps 753 mmHg 47%
    18:00 +20°C° 0 mm 3 mps 752 mmHg 54%
    19:00 +19°C° 0 mm 3 mps 751 mmHg 61%
    20:00 +17°C° 0 mm 3 mps 751 mmHg 68%
    21:00 +16°C° 0 mm 3 mps 750 mmHg 72%
    22:00 +16°C° 0 mm 3 mps 750 mmHg 76%
    23:00 +14°C° 0 mm 3 mps 750 mmHg 79%

    Day after tomorrow, 30 May, Wednesday

    Time Temperature Precipitation Wind Pressure Humidity
    00:00 +14°C° 0 mm 3 mps 749 mmHg 81%
    01:00 +14°C° 0 mm 3 mps 749 mmHg 83%
    02:00 +13°C° 0 mm 3 mps 748 mmHg 85%
    03:00 +14°C° 0 mm 4 mps 748 mmHg 81%
    04:00 +14°C° 0 mm 4 mps 747 mmHg 78%
    05:00 +14°C° 0 mm 5 mps 747 mmHg 74%
    06:00 +16°C° 0 mm 5 mps 746 mmHg 67%
    07:00 +19°C° 0 mm 5 mps 746 mmHg 59%
    08:00 +21°C° 0 mm 6 mps 745 mmHg 51%
    09:00 +22°C° 0 mm 6 mps 745 mmHg 48%
    10:00 +23°C° 0 mm 7 mps 744 mmHg 45%
    11:00 +24°C° 0 mm 7 mps 744 mmHg 42%
    12:00 +26°C° 0 mm 7 mps 743 mmHg 41%
    13:00 +26°C° 0 mm 7 mps 743 mmHg 41%
    14:00 +26°C° 0 mm 7 mps 743 mmHg 40%
    15:00 +24°C° 0 mm 6 mps 743 mmHg 44%
    16:00 +22°C° 0 mm 5 mps 743 mmHg 47%
    17:00 +21°C° 0 mm 4 mps 743 mmHg 51%
    18:00 +19°C° 0 mm 4 mps 743 mmHg 52%
    19:00 +17°C° 0 mm 3 mps 743 mmHg 53%
    20:00 +14°C° 0 mm 3 mps 744 mmHg 55%
    21:00 +12°C° 0 mm 3 mps 744 mmHg 58%
    22:00 +11°C° 0 mm 3 mps 744 mmHg 61%
    23:00 +10°C° 0 mm 2 mps 745 mmHg 64%

    31 May, Thursday

    Time Temperature Precipitation Wind Pressure Humidity
    00:00 +9°C° 0 mm 3 mps 745 mmHg 67%
    01:00 +9°C° 0 mm 3 mps 746 mmHg 70%
    02:00 +8°C° 0 mm 3 mps 746 mmHg 73%
    03:00 +8°C° 0 mm 3 mps 747 mmHg 70%
    04:00 +7°C° 0 mm 4 mps 747 mmHg 68%
    05:00 +7°C° 0 mm 4 mps 748 mmHg 66%
    06:00 +8°C° 0 mm 4 mps 748 mmHg 61%
    07:00 +10°C° 0 mm 4 mps 749 mmHg 56%
    08:00 +10°C° 0 mm 4 mps 749 mmHg 52%
    09:00 +11°C° 0 mm 4 mps 749 mmHg 49%
    10:00 +12°C° 0 mm 4 mps 750 mmHg 46%
    11:00 +12°C° 0 mm 4 mps 750 mmHg 42%
    12:00 +13°C° 0 mm 4 mps 750 mmHg 41%
    13:00 +13°C° 0 mm 4 mps 750 mmHg 39%
    14:00 +13°C° 0 mm 5 mps 750 mmHg 37%
    15:00 +13°C° 0 mm 4 mps 750 mmHg 37%
    16:00 +13°C° 0 mm 4 mps 751 mmHg 38%
    17:00 +12°C° 0 mm 4 mps 751 mmHg 39%
    18:00 +11°C° 0 mm 3 mps 751 mmHg 45%
    19:00 +9°C° 0 mm 3 mps 752 mmHg 51%
    20:00 +7°C° 0 mm 2 mps 752 mmHg 57%
    21:00 +6°C° 0 mm 2 mps 753 mmHg 58%
    22:00 +4°C° 0 mm 3 mps 753 mmHg 58%
    23:00 +4°C° 0 mm 3 mps 753 mmHg 59%

    1 June, Friday

    Time Temperature Precipitation Wind Pressure Humidity
    00:00 +3°C° 0 mm 3 mps 754 mmHg 61%
    01:00 +2°C° 0 mm 3 mps 754 mmHg 64%
    02:00 +3°C° 0 mm 2 mps 755 mmHg 66%
    03:00 +2°C° 0 mm 3 mps 755 mmHg 65%
    04:00 +3°C° 0 mm 3 mps 755 mmHg 64%
    05:00 +3°C° 0 mm 3 mps 755 mmHg 63%
    06:00 +4°C° 0 mm 3 mps 756 mmHg 58%
    07:00 +7°C° 0 mm 3 mps 756 mmHg 53%
    08:00 +8°C° 0 mm 3 mps 756 mmHg 49%
    09:00 +9°C° 0 mm 3 mps 756 mmHg 47%
    10:00 +10°C° 0 mm 3 mps 756 mmHg 44%
    11:00 +11°C° 0 mm 3 mps 756 mmHg 42%
    12:00 +11°C° 0 mm 3 mps 756 mmHg 41%
    13:00 +12°C° 0 mm 3 mps 756 mmHg 39%
    14:00 +13°C° 0 mm 3 mps 755 mmHg 38%
    15:00 +13°C° 0 mm 3 mps 755 mmHg 39%
    16:00 +13°C° 0 mm 3 mps 755 mmHg 39%
    17:00 +14°C° 0 mm 2 mps 755 mmHg 40%
    18:00 +12°C° 0 mm 2 mps 755 mmHg 47%
    19:00 +10°C° 0 mm 1 mps 755 mmHg 54%
    20:00 +8°C° 0 mm 1 mps 756 mmHg 61%
    21:00 +7°C° 0 mm 1 mps 756 mmHg 62%
    22:00 +6°C° 0 mm 1 mps 756 mmHg 63%
    23:00 +6°C° 0 mm 1 mps 756 mmHg 64%

    2 June, Saturday

    Time Temperature Precipitation Wind Pressure Humidity
    00:00 +5°C° 0 mm 1 mps 757 mmHg 65%
    01:00 +5°C° 0 mm 1 mps 757 mmHg 66%
    02:00 +5°C° 0 mm 1 mps 757 mmHg 67%
    03:00 +6°C° 0 mm 1 mps 757 mmHg 66%
    04:00 +7°C° 0 mm 1 mps 757 mmHg 65%
    05:00 +8°C° 0 mm 1 mps 757 mmHg 63%
    06:00 +10°C° 0 mm 1 mps 757 mmHg 57%
    07:00 +12°C° 0 mm 1 mps 757 mmHg 51%
    08:00 +15°C° 0 mm 1 mps 757 mmHg 45%
    09:00 +16°C° 0 mm 1 mps 757 mmHg 42%
    10:00 +18°C° 0 mm 1 mps 757 mmHg 38%
    11:00 +19°C° 0 mm 1 mps 756 mmHg 35%
    12:00 +20°C° 0 mm 1 mps 756 mmHg 35%
    13:00 +20°C° 0 mm 1 mps 755 mmHg 35%
    14:00 +20°C° 0 mm 2 mps 755 mmHg 35%
    15:00 +20°C° 0 mm 2 mps 754 mmHg 37%
    16:00 +19°C° 0 mm 2 mps 754 mmHg 39%
    17:00 +19°C° 0 mm 2 mps 753 mmHg 42%
    18:00 +17°C° 0 mm 2 mps 753 mmHg 49%
    19:00 +15°C° 0 mm 2 mps 753 mmHg 56%
    20:00 +13°C° 0 mm 2 mps 753 mmHg 64%
    21:00 +12°C° 0 mm 2 mps 753 mmHg 65%
    22:00 +10°C° 0 mm 2 mps 753 mmHg 66%
    23:00 +10°C° 0 mm 2 mps 753 mmHg 68%
    Show more